• Processing (Info)

  • MPEC 2023-K170 : 2023 KV3

    The following Minor Planet Electronic Circular may be linked-to from your own Web pages, but must not otherwise be redistributed electronically.

    A form allowing access to any MPEC is at the bottom of this page.


    Read MPEC 2023-K169 Read MPEC 2023-K171


    M.P.E.C. 2023-K170                                 Issued 2023 May 29, 00:18 UT
    
         The Minor Planet Electronic Circulars contain information on unusual
             minor planets, routine data on comets and natural satellites,
             and occasional editorial announcements.  They are published
        on behalf of Division F of the International Astronomical Union by the
              Minor Planet Center, Smithsonian Astrophysical Observatory,
                              Cambridge, MA 02138, U.S.A.
    			  
                 Prepared using the Tamkin Foundation Computer Network
    
                                  MPC@CFA.HARVARD.EDU
                URL https://www.minorplanetcenter.net/    ISSN 1523-6714
    
                                    2023 KV3                                 
    
    
    Observations:
         K23K03V*1C2023 05 27.18985614 21 41.810+18 03 15.34         20.15GVEK170G96
         K23K03V 1C2023 05 27.19547714 21 40.529+18 01 18.62         19.88GVEK170G96
         K23K03V 1C2023 05 27.20110914 21 39.276+17 59 22.24               VEK170G96
         K23K03V 1C2023 05 27.20673914 21 38.063+17 57 24.62         19.72GVEK170G96
         K23K03V mC2023 05 27.27006414 21 23.497+17 34 22.69         20.42GVEK170I52
         K23K03V mC2023 05 27.27038414 21 23.443+17 34 15.20         20.82GVEK170I52
         K23K03V mC2023 05 27.27071314 21 23.382+17 34 07.97         20.60GVEK170I52
         K23K03V mC2023 05 27.27103314 21 23.382+17 34 01.88               VEK170I52
         K23K03V KC2023 05 27.86095214 21 43.57 +12 30 58.0          19.9 VcEK170L01
         K23K03V KC2023 05 27.86218914 21 43.28 +12 30 07.4          19.8 VcEK170L01
         K23K03V KC2023 05 27.86324514 21 43.02 +12 29 23.0          19.8 VcEK170L01
         K23K03V KC2023 05 27.86438114 21 42.77 +12 28 36.0          19.7 VcEK170L01
         K23K03V KC2023 05 27.86551914 21 42.47 +12 27 48.6          19.5 VcEK170L01
         K23K03V KC2023 05 27.90968714 21 41.67 +11 56 20.2          19.4 GXEK170I93
         K23K03V 1C2023 05 27.91222914 21 30.640+11 53 28.40               VEK170246
         K23K03V KC2023 05 27.91282714 21 40.89 +11 54 00.8          20.3 GXEK170I93
         K23K03V KC2023 05 27.91414014 21 41.206+11 51 35.86         19.8 GVEK170J95
         K23K03V 1C2023 05 27.91670514 21 29.520+11 50 08.80         19.8 GVEK170246
         K23K03V 1C2023 05 27.91773114 21 29.310+11 49 23.60               VEK170246
         K23K03V KC2023 05 27.91882414 21 40.154+11 48 07.45         19.6 GVEK170J95
         K23K03V KC2023 05 27.92049614 21 38.90 +11 48 20.0          19.6 GXEK170I93
         K23K03V KC2023 05 27.92262514 21 38.34 +11 46 45.2          20.1 GXEK170I93
         K23K03V KC2023 05 27.92277114 21 39.254+11 45 11.23         19.5 GVEK170J95
         K23K03V KC2023 05 27.92700 14 21 28.47 +11 43 34.2          19.0 GXEK170K83
         K23K03V KC2023 05 27.93123 14 21 27.33 +11 40 21.3          18.9 GXEK170K83
         K23K03V |C2023 05 28.09612 14 21 49.14 +09 41 50.5          19.0 VuEK170807
         K23K03V |C2023 05 28.09891 14 21 48.16 +09 39 15.3          19.4 VuEK170807
         K23K03V |C2023 05 28.10162 14 21 47.22 +09 36 45.5          19.3 VuEK170807
         K23K03V  C2023 05 28.20743614 21 58.584+07 31 11.33         19.0 GVEK170654
         K23K03V  C2023 05 28.20944114 21 57.895+07 28 59.58         19.0 GVEK170654
         K23K03V  C2023 05 28.24907614 21 43.613+06 44 09.23         19.0 GVEK170654
         K23K03V  C2023 05 28.25080514 21 42.970+06 42 08.07         19.0 GVEK170654
         K23K03V 1C2023 05 28.31432414 22 03.467+05 28 45.08         19.01GVEK170T12
         K23K03V 1C2023 05 28.31547714 22 02.977+05 27 15.63         18.87GVEK170T12
         K23K03V 1C2023 05 28.31598714 22 02.759+05 26 36.39         18.82GVEK170T12
         K23K03V KC2023 05 28.82673614 22 39.16 -12 25 46.0          18.0 GXEK170595
         K23K03V SC2023 05 28.84687014 22 30.17 -13 32 43.3                XEK170595
         K23K03V 1C2023 05 28.85753314 22 23.280-14 10 06.10               VEK170246
         K23K03V 1C2023 05 28.85764414 22 23.230-14 10 29.70               VEK170246
         K23K03V 1C2023 05 28.85786514 22 23.160-14 11 15.10               VEK170246
         K23K03V 1C2023 05 28.85888414 22 22.670-14 14 50.80               VEK170246
         K23K03V 1C2023 05 28.85902914 22 22.640-14 15 20.40               VEK170246
         K23K03V 1C2023 05 28.85917414 22 22.530-14 15 47.20               VEK170246
         K23K03V 1C2023 05 28.85932014 22 22.550-14 16 17.80               VEK170246
         K23K03V KB2023 05 28.86025 14 22 27.960-14 19 48.22         17.6 GXEK170K74
         K23K03V KC2023 05 28.86179 14 22 27.56 -14 23 27.9          18.9 GXEK170K83
         K23K03V KC2023 05 28.86648 14 22 25.21 -14 39 56.1          18.5 GXEK170K83
         K23K03V KB2023 05 28.86686 14 22 25.022-14 42 56.56         17.4 GXEK170K74
         K23K03V KC2023 05 28.90559914 22 25.058-17 05 15.14         17.6 GVEK170J95
         K23K03V KC2023 05 28.91152314 22 22.363-17 27 57.28         17.6 GVEK170J95
         K23K03V KC2023 05 28.93029814 22 13.392-18 41 37.97         17.6 GVEK170J95
         K23K03V KC2023 05 28.93399014 22 11.590-18 56 26.20         17.7 GVEK170J95
    
    Observer details:
    246 Klet Observatory-KLENOT.  Observers M. Tichy, J. Ticha, M. Janda, M.
        Honkova.  Measurer M. Tichy.  1.06-m f/2.7 Reflector + 2048x2048 CCD.
    595 Farra d'Isonzo.  Observer E. Pettarin.  0.61-m f/4.5 reflector + CCD.
    654 Table Mountain Observatory, Wrightwood-PHMC.  Observers N. Evans, P. Choi,
        N. Saini, C. Zhai, R. Trahan, M. Shao.  1.0-m Reflector + CCD.
    807 Cerro Tololo Observatory, La Serena.  Observers T. Linder, R. Holmes, L.
        Horn.  0.61-m f/6.5 Dall-Kirkham Astrograph + CCD.
    G96 Mt. Lemmon Survey.  Observer G. J. Leonard.  Measurers E. J. Christensen,
        D. Fay, J. B. Fazekas, D. C. Fuls, A. R. Gibbs, A. D. Grauer, H. Groeller,
        J. K. Hogan, R. A. Kowalski, S. M. Larson, G. J. Leonard, D. Rankin, R. L.
        Seaman, A. Serrano, F. C. Shelly, K. W. Wierzchos.  1.5-m reflector + 10K
        CCD.
    I52 Steward Observatory, Mt. Lemmon Station.  Observer A. Serrano.  Measurers
        E. J. Christensen, D. Fay, J. B. Fazekas, D. C. Fuls, A. R. Gibbs, A. D.
        Grauer, H. Groeller, J. K. Hogan, R. A. Kowalski, S. M. Larson, G. J.
        Leonard, D. Rankin, R. L. Seaman, A. Serrano, F. C. Shelly, K. W.
        Wierzchos.  1.0-m prime focus + CCD.
    I93 St Pardon de Conques.  Observer F. Losse.  0.40-m f/3.7 reflector + CCD.
    J95 Great Shefford.  Observer P. Birtwhistle.  0.41-m f/6.3 Schmidt-Cassegrain
        + CCD.
    K74 Muensterschwarzach Observatory, Schwarzach.  Observer C. Gerhard.  0.30-m
        f/3.75 reflector + CMO.
    K83 Beppe Forti Astronomical Observatory, Montelupo.  Observers M. Tombelli,
        A. Boattini, A. Squilloni, M. Lombardo, M. Calamandrei, T. Bitossi, G.
        Interrante, M. Iozzi, G. Fieramosca, E. Biscardi, A. Mazzanti.  Measurers
        M. Tombelli, F. Bernardi.  0.40-m f/8 Ritchey-Chretien + CCD.
    L01 Visnjan Observatory, Tican.  Observer K. Korlevic.  1.0-m f/2.9 reflector
        + CCD.
    T12 University of Hawaii 88-inch telescope, Maunakea.  Observer Y.
        Ramanjooloo.  Measurers R. Weryk, Y. Ramanjooloo, R. Wainscoat.  2.24-m
        University of Hawaii reflector + CCD.
    
    Orbital elements:
    2023 KV3                                                 Earth MOID = 0.0030 AU
    Epoch 2023 Feb. 25.0 TT = JDT 2460000.5                 Bell                    
    M 325.58221              (2000.0)            P               Q                  
    n   0.30633564     Peri.  203.85723     +0.00456050     +0.98210168             
    a   2.1794038      Node    66.85565     -0.88137470     +0.09289987             
    e   0.5473426      Incl.   11.81646     -0.47239584     -0.16384718             
    P   3.22           H   28.21          G   0.15           U   6                  
    Residuals in seconds of arc
    230527 G96  0.6+  0.6-    230527 246  1.8-  1.1-    230528 595  0.3-  1.4+
    230527 G96  0.2-  1.2-    230527 J95  0.1+  0.2+    230528 246  0.1-  0.6+
    230527 G96  0.3-  0.4-    230527 I93  0.3+  0.3-    230528 246  0.1-  0.0
    230527 G96  0.3+  0.2-    230527 I93  0.4+  0.2+    230528 246  0.4+  0.6+
    230527 I52  0.0   0.1-    230527 J95  0.1+  0.7+    230528 246  0.0   3.2-
    230527 I52  0.3+  0.3-    230527 K83  0.1+  0.9-    230528 246  0.6+  2.5-
    230527 I52  0.5+  0.1-    230527 K83  0.2-  1.7-    230528 246  0.0   1.0+
    230527 I52  1.6+  1.1+    230528 807  0.3-  0.1-    230528 246  1.2+  0.6+
    230527 L01  0.9-  0.5-    230528 807 (0.4-  0.7-)   230528 K74 (0.3+  3.6-)
    230527 L01  0.6-  0.3+    230528 807  0.2-  0.2+    230528 K83  0.6-  0.6-
    230527 L01  0.6-  0.2-    230528 654  0.1+  0.1+    230528 K83  0.1+  0.8-
    230527 L01  0.1-  0.1+    230528 654  0.0   0.1+    230528 K74  0.2+  1.8-
    230527 L01  0.4-  0.1+    230528 654  0.0   0.2+    230528 J95  0.1+  0.1-
    230527 I93  0.4-  0.1-    230528 654  0.0   0.2+    230528 J95  0.4+  0.1-
    230527 246  1.6-  1.8-    230528 T12 (0.1+  0.6+)   230528 J95  0.2-  0.3+
    230527 I93  0.1+  0.8-    230528 T12  0.0   0.1-    230528 J95  0.2-  0.2+
    230527 J95  0.0   0.1+    230528 T12  0.0   0.1+
    230527 246  2.3-  1.8-    230528 595  0.3-  0.1-
    
    Ephemeris:
    2023 KV3                 a,e,i = 2.18, 0.55, 12                  q = 0.9865
    Date    TT    R. A. (2000) Decl.     Delta      r    Elong.  Phase     V
    2023 04 29    14 26 12.5 +26 54 32   0.1970  1.1624   138.9    34.7    26.4
    ...
    2023 05 14    14 23 22.7 +28 22 43   0.09834 1.0777   131.2    44.9    25.1
    ...
    2023 05 22    14 21 55.3 +27 00 40   0.04715 1.0418   127.9    50.1    23.5
    ...
    2023 05 28    14 21 40.7 +10 55 24   0.0092851.0200   137.1    42.6    19.7
    2023 05 29    14 22 27.2 -23 00 44   0.0039421.0169   152.6    27.3    17.4
    2023 05 30    02 18 33.7 -68 30 13   0.0051711.0138    93.1    86.7    19.9
    ...
    2023 06 05    02 21 15.3 -34 30 08   0.04248 0.9986    67.0   110.8    25.6
    ...
    2023 06 13    02 22 53.2 -31 43 50   0.09299 0.9871    69.7   105.2    26.9
    ...
    2023 06 28    02 27 43.9 -29 40 52   0.1835  0.9942    77.8    91.8    27.8
    
    M. P. C. Staff               (C) Copyright 2023 MPC           M.P.E.C. 2023-K170
    


    Read MPEC 2023-K169 Read MPEC 2023-K171


    MPEC number:

    Enter an MPEC number in one of the following forms:

    • 1997-B01 (the full form)
    • J97B01 (the packed version of the full form)
    • B01 (the abbreviated form)